{"data":{"norad_id":65987,"epoch":"2026-09-20T14:19:35.587488Z","epoch_age_seconds":131994,"freshness":"FRESH","line1":"1 65987U 25230P   26263.59693967  .00000138  00000+0  12596-3 0  9997","line2":"2 65987  81.2986 124.9652 0000348  23.3733 336.7436 13.78090459 46903","mean_motion":13.78090459,"eccentricity":3.48e-5,"inclination_deg":81.2986,"raan_deg":124.9652,"arg_perigee_deg":23.3733,"mean_anomaly_deg":336.7436,"bstar":0.00012596,"rev_number":4690,"period_min":104.49241489161,"perigee_km":970.41170531061,"apogee_km":970.92318209989,"semimajor_km":7348.8044437052,"source":"CELESTRAK","updated_at":"2026-09-21T09:00:15.689666Z"}}